Simultaneous Nadir Overpasses (SNOs) Predictions

Prediction of SNOs between GOES-14 and NOAA-20 Satellite Orbit:

Table of predicted SNOs for the next 14.0 days since TLE Epoch: 8/30/2025
Index Date Time (GOES-14) GOES-14 Lat,Lon NOAA-20 Lat,Lon Distance(km) Time Diff (sec)
1 08/31/2025 20:52:13 0.93,-108.21 0.02,-112.30 465.93 80
2 09/01/2025 20:36:08 0.94,-108.22 1.01,-107.76 51.66 80
3 09/04/2025 08:39:10 -0.94,-108.24 -0.92,-108.50 29.16 80
4 09/05/2025 08:17:45 -0.95,-108.24 -1.91,-103.96 487.80 80
5 09/06/2025 20:39:40 0.94,-108.24 0.70,-109.26 115.79 80
6 09/07/2025 20:23:36 0.95,-108.25 1.76,-104.73 401.73 80
7 09/09/2025 08:45:22 -0.93,-108.28 -0.55,-109.99 194.84 80
8 09/10/2025 08:23:57 -0.94,-108.28 -1.55,-105.45 321.87 80
9 09/11/2025 20:48:32 0.92,-108.26 0.36,-110.74 282.66 80
10 09/12/2025 20:27:07 0.94,-108.27 1.42,-106.22 234.31 80
